Location: Caltech
(34.1382°N, 118.1253°W)
Time: 00:06:10
(UTC-07:00)

Cosmos 1626 - Visible Passes

Search period start: 06 July 2015 00:00
Search period end: 16 July 2015 00:00
Orbit: 505 x 510 km, 82.5° (Epoch: 05 July)

Date Brightness Start Highest point End Pass type
(mag) Time Alt. Az. Time Alt. Az. Time Alt. Az.
06 Jul 4.1 21:12:11 13° E 21:12:23 13° E 21:14:23 10° ENE visible
06 Jul 3.9 22:46:59 25° W 22:47:43 27° WNW 22:50:58 10° NNW visible
07 Jul 3.5 22:29:02 30° WSW 22:30:08 37° W 22:33:39 10° NNW visible
08 Jul 2.9 22:11:03 31° SW 22:12:32 51° W 22:16:13 10° N visible
09 Jul 2.3 21:52:58 26° SSW 21:54:58 71° W 21:58:44 10° N visible
10 Jul 2.0 21:34:48 19° S 21:37:24 82° E 21:41:11 10° N visible
11 Jul 2.2 21:16:33 13° S 21:19:50 58° E 21:23:34 10° NNE visible
12 Jul 2.6 20:58:45 10° SSE 21:02:17 42° E 21:05:53 10° NNE visible
13 Jul 3.0 20:41:26 10° SSE 20:44:44 30° E 20:48:07 10° NNE visible
13 Jul 5.2 22:18:45 10° W 22:20:28 12° WNW 22:22:00 10° NW visible
14 Jul 5.0 22:00:16 10° WSW 22:02:46 16° WNW 22:05:09 10° NW visible
15 Jul 4.7 21:42:06 10° SW 21:45:05 22° WNW 21:48:00 10° NNW visible
